UAL447 KEWR-KMCO

Flight info

Callsign UAL447
Flight time 2h 1m
Altitude 34000
Route ELVAE NECCK WHITE Q409 CRPLR Q85 LPERD GTOUT1
Aircraft B739/M-SDE2E3FGHIRWXY/LB1

Departure

Time 2026-05-06 12:37
Airport Newark Liberty International Airport (KEWR)

Arrival

Time 2026-05-06 14:39
Airport Orlando International Airport (KMCO)
Time Latitude Longitude Altitude Speed Heading
2026-05-06 12:20 40.69377 -74.17299 23 ft 0 kts 44°
2026-05-06 12:29 40.69369 -74.17309 21 ft 4 kts 44°
2026-05-06 12:29 40.69355 -74.17328 25 ft 4 kts 35°
2026-05-06 12:30 40.69336 -74.17338 23 ft 4 kts 32°
2026-05-06 12:30 40.69329 -74.17359 24 ft 3 kts 104°
2026-05-06 12:30 40.69335 -74.17390 23 ft 2 kts 104°
2026-05-06 12:30 40.69335 -74.17391 23 ft 0 kts 104°
2026-05-06 12:32 40.69334 -74.17387 23 ft 3 kts 105°
2026-05-06 12:32 40.69316 -74.17318 22 ft 9 kts 114°
2026-05-06 12:33 40.69282 -74.17247 21 ft 9 kts 125°
2026-05-06 12:33 40.69248 -74.17169 21 ft 10 kts 117°
2026-05-06 12:33 40.69219 -74.17085 21 ft 10 kts 99°
2026-05-06 12:33 40.69255 -74.17014 21 ft 10 kts 28°
2026-05-06 12:34 40.69336 -74.16963 21 ft 14 kts 24°
2026-05-06 12:34 40.69424 -74.16908 22 ft 15 kts 25°
2026-05-06 12:34 40.69530 -74.16838 21 ft 22 kts 26°
2026-05-06 12:34 40.69673 -74.16749 21 ft 23 kts 26°
2026-05-06 12:35 40.69813 -74.16660 21 ft 22 kts 25°
2026-05-06 12:35 40.69940 -74.16578 22 ft 19 kts 26°
2026-05-06 12:35 40.70055 -74.16505 20 ft 18 kts 26°
2026-05-06 12:35 40.70174 -74.16470 20 ft 17 kts
2026-05-06 12:36 40.70277 -74.16424 23 ft 14 kts 68°
2026-05-06 12:36 40.70273 -74.16301 21 ft 13 kts 92°
2026-05-06 12:36 40.70226 -74.16236 20 ft 11 kts 199°
2026-05-06 12:36 40.70206 -74.16248 19 ft 13 kts 204°
2026-05-06 12:37 40.69911 -74.16433 18 ft 79 kts 205°
2026-05-06 12:37 40.69245 -74.16858 22 ft 131 kts 206°
2026-05-06 12:37 40.68341 -74.17428 306 ft 149 kts 205°
2026-05-06 12:37 40.67409 -74.18060 935 ft 149 kts 210°
2026-05-06 12:38 40.66447 -74.18462 1641 ft 148 kts 180°
2026-05-06 12:38 40.65422 -74.18313 2104 ft 150 kts 199°
2026-05-06 12:38 40.64480 -74.18986 2281 ft 162 kts 218°
2026-05-06 12:38 40.63487 -74.19858 2484 ft 182 kts 217°
2026-05-06 12:39 40.62371 -74.20824 2630 ft 203 kts 217°
2026-05-06 12:39 40.61138 -74.21898 2933 ft 219 kts 216°
2026-05-06 12:39 40.59841 -74.23028 3602 ft 223 kts 216°
2026-05-06 12:39 40.58537 -74.24165 4273 ft 229 kts 216°
2026-05-06 12:40 40.57189 -74.25342 4920 ft 234 kts 215°
2026-05-06 12:40 40.55808 -74.26492 5591 ft 238 kts 207°
2026-05-06 12:40 40.54154 -74.26945 6218 ft 250 kts 184°
2026-05-06 12:40 40.52416 -74.26602 6936 ft 258 kts 169°
2026-05-06 12:41 40.50703 -74.25804 7706 ft 263 kts 166°
2026-05-06 12:41 40.48981 -74.24919 8467 ft 268 kts 165°
2026-05-06 12:41 40.47240 -74.24017 9267 ft 271 kts 165°
2026-05-06 12:41 40.45468 -74.23110 10024 ft 274 kts 166°
2026-05-06 12:42 40.43662 -74.22197 10435 ft 287 kts 166°
2026-05-06 12:42 40.41731 -74.21234 10573 ft 307 kts 166°
2026-05-06 12:42 40.39671 -74.20209 10748 ft 326 kts 165°
2026-05-06 12:42 40.37486 -74.19125 10891 ft 344 kts 165°
2026-05-06 12:43 40.35198 -74.17993 11035 ft 360 kts 165°
2026-05-06 12:43 40.32789 -74.16978 11349 ft 364 kts 174°
2026-05-06 12:43 40.30287 -74.16658 11867 ft 360 kts 184°
2026-05-06 12:43 40.27807 -74.16934 12454 ft 357 kts 195°
2026-05-06 12:44 40.25379 -74.17657 13012 ft 358 kts 197°
2026-05-06 12:44 40.22936 -74.18419 13494 ft 363 kts 197°
2026-05-06 12:44 40.20473 -74.19182 14005 ft 366 kts 197°
2026-05-06 12:44 40.17985 -74.19943 14488 ft 369 kts 197°
2026-05-06 12:45 40.15473 -74.20701 14979 ft 373 kts 197°
2026-05-06 12:45 40.12931 -74.21462 15464 ft 376 kts 197°
2026-05-06 12:45 40.07785 -74.22995 16418 ft 383 kts 197°
2026-05-06 12:46 40.05169 -74.23773 16872 ft 386 kts 197°
2026-05-06 12:46 40.02593 -74.24617 17266 ft 388 kts 201°
2026-05-06 12:46 40.00096 -74.25965 17684 ft 389 kts 210°
2026-05-06 12:46 39.97780 -74.27776 18134 ft 389 kts 218°
2026-05-06 12:47 39.95603 -74.29884 18528 ft 391 kts 219°
2026-05-06 12:47 39.93410 -74.32016 18906 ft 394 kts 219°
2026-05-06 12:47 39.91203 -74.34146 19290 ft 396 kts 219°
2026-05-06 12:47 39.88976 -74.36280 19690 ft 398 kts 219°
2026-05-06 12:48 39.86735 -74.38416 20068 ft 401 kts 219°
2026-05-06 12:48 39.84480 -74.40560 20398 ft 403 kts 219°
2026-05-06 12:48 39.82208 -74.42732 20735 ft 406 kts 220°
2026-05-06 12:48 39.80086 -74.45157 21069 ft 406 kts 227°
2026-05-06 12:49 39.78120 -74.47793 21436 ft 408 kts 229°
2026-05-06 12:49 39.76149 -74.50461 21770 ft 410 kts 229°
2026-05-06 12:49 39.74165 -74.53140 22104 ft 412 kts 229°
2026-05-06 12:49 39.72168 -74.55821 22451 ft 414 kts 229°
2026-05-06 12:50 39.70151 -74.58512 22776 ft 417 kts 229°
2026-05-06 12:50 39.68119 -74.61210 23092 ft 419 kts 229°
2026-05-06 12:50 39.66074 -74.63919 23400 ft 421 kts 229°
2026-05-06 12:50 39.64017 -74.66637 23666 ft 423 kts 229°
2026-05-06 12:51 39.61944 -74.69372 23942 ft 425 kts 229°
2026-05-06 12:51 39.59872 -74.72104 24219 ft 426 kts 229°
2026-05-06 12:51 39.57791 -74.74845 24495 ft 427 kts 229°
2026-05-06 12:51 39.55705 -74.77590 24765 ft 429 kts 229°
2026-05-06 12:52 39.53609 -74.80347 25034 ft 430 kts 229°
2026-05-06 12:52 39.52214 -74.82179 25225 ft 431 kts 229°
2026-05-06 12:52 39.50105 -74.84949 25492 ft 432 kts 229°
2026-05-06 12:52 39.47990 -74.87724 25749 ft 434 kts 229°
2026-05-06 12:53 39.45173 -74.91418 26063 ft 437 kts 230°
2026-05-06 12:53 39.43034 -74.94218 26311 ft 438 kts 230°
2026-05-06 12:53 39.41585 -74.96113 26496 ft 439 kts 230°
2026-05-06 12:53 39.39439 -74.98918 26843 ft 438 kts 230°
2026-05-06 12:54 39.37303 -75.01706 27271 ft 435 kts 230°
2026-05-06 12:54 39.35206 -75.04442 27727 ft 433 kts 230°
2026-05-06 12:54 39.33097 -75.07192 28183 ft 431 kts 231°
2026-05-06 12:54 39.30985 -75.09944 28569 ft 430 kts 231°
2026-05-06 12:55 39.28864 -75.12668 28947 ft 430 kts 230°
2026-05-06 12:55 39.26653 -75.15306 29294 ft 433 kts 228°
2026-05-06 12:55 39.24409 -75.17889 29645 ft 433 kts 228°
2026-05-06 12:55 39.22153 -75.20467 30097 ft 431 kts 228°
2026-05-06 12:56 39.19921 -75.23029 30512 ft 428 kts 229°
2026-05-06 12:56 39.17707 -75.25590 30887 ft 427 kts 229°
2026-05-06 12:56 39.15499 -75.28159 31204 ft 427 kts 230°
2026-05-06 12:56 39.13304 -75.30719 31529 ft 426 kts 230°
2026-05-06 12:57 39.11108 -75.33280 31874 ft 425 kts 230°
2026-05-06 12:57 39.08920 -75.35828 32182 ft 424 kts 230°
2026-05-06 12:57 39.06728 -75.38377 32441 ft 425 kts 230°
2026-05-06 12:57 39.04478 -75.40857 32726 ft 431 kts 224°
2026-05-06 12:58 39.01844 -75.42828 33084 ft 444 kts 214°
2026-05-06 12:58 38.98943 -75.44276 33539 ft 451 kts 207°
2026-05-06 12:58 38.95840 -75.45119 33910 ft 464 kts 198°
2026-05-06 12:59 38.89362 -75.45963 33966 ft 473 kts 196°
2026-05-06 12:59 38.82829 -75.46759 33967 ft 470 kts 197°
2026-05-06 13:00 38.76333 -75.47658 33969 ft 469 kts 197°
2026-05-06 13:00 38.69843 -75.48567 33975 ft 469 kts 197°
2026-05-06 13:01 38.63344 -75.49445 33968 ft 470 kts 196°
2026-05-06 13:01 38.56833 -75.50318 33987 ft 471 kts 196°
2026-05-06 13:02 38.50311 -75.51197 33991 ft 472 kts 196°
2026-05-06 13:02 38.43809 -75.52071 33961 ft 473 kts 196°
2026-05-06 13:03 38.37264 -75.53030 33982 ft 468 kts 201°
2026-05-06 13:03 38.34175 -75.54114 33996 ft 455 kts 211°
2026-05-06 13:03 38.31311 -75.55709 33994 ft 445 kts 218°
2026-05-06 13:04 38.26233 -75.59976 33993 ft 436 kts 225°
2026-05-06 13:04 38.21241 -75.64402 33978 ft 438 kts 224°
2026-05-06 13:05 38.16213 -75.68807 33993 ft 440 kts 224°
2026-05-06 13:05 38.11145 -75.73211 33996 ft 442 kts 224°
2026-05-06 13:06 38.06065 -75.77611 34002 ft 442 kts 224°
2026-05-06 13:06 38.01008 -75.81983 33975 ft 441 kts 224°
2026-05-06 13:07 37.95939 -75.86360 34004 ft 441 kts 224°
2026-05-06 13:07 37.90876 -75.90726 34004 ft 440 kts 224°
2026-05-06 13:08 37.85820 -75.95078 33996 ft 439 kts 224°
2026-05-06 13:08 37.80766 -75.99422 33966 ft 439 kts 224°
2026-05-06 13:09 37.75713 -76.03758 33997 ft 439 kts 224°
2026-05-06 13:09 37.70648 -76.08099 34007 ft 441 kts 224°
2026-05-06 13:10 37.65561 -76.12450 34002 ft 443 kts 224°
2026-05-06 13:10 37.60445 -76.16816 34017 ft 444 kts 224°
2026-05-06 13:11 37.55181 -76.20955 34009 ft 447 kts 221°
2026-05-06 13:11 37.49859 -76.24903 33996 ft 445 kts 221°
2026-05-06 13:12 37.44541 -76.28866 34010 ft 443 kts 221°
2026-05-06 13:12 37.39266 -76.32834 33986 ft 441 kts 221°
2026-05-06 13:13 37.34012 -76.36799 33995 ft 439 kts 221°
2026-05-06 13:13 37.28772 -76.40752 34016 ft 439 kts 221°
2026-05-06 13:14 37.23534 -76.44696 34015 ft 439 kts 221°
2026-05-06 13:14 37.18292 -76.48636 34023 ft 440 kts 221°
2026-05-06 13:15 37.13034 -76.52579 34018 ft 440 kts 221°
2026-05-06 13:15 37.07758 -76.56530 34010 ft 441 kts 221°
2026-05-06 13:16 37.02478 -76.60477 34014 ft 442 kts 221°
2026-05-06 13:16 36.97224 -76.64397 34012 ft 443 kts 221°
2026-05-06 13:17 36.91929 -76.68341 34014 ft 443 kts 222°
2026-05-06 13:17 36.86625 -76.72287 34039 ft 443 kts 222°
2026-05-06 13:18 36.81324 -76.76223 34046 ft 443 kts 222°
2026-05-06 13:18 36.76017 -76.80158 34038 ft 444 kts 222°
2026-05-06 13:19 36.70704 -76.84090 34035 ft 443 kts 222°
2026-05-06 13:19 36.65430 -76.87987 34048 ft 443 kts 222°
2026-05-06 13:20 36.60130 -76.91897 34032 ft 442 kts 222°
2026-05-06 13:20 36.54836 -76.95795 34036 ft 441 kts 222°
2026-05-06 13:21 36.49562 -76.99674 34038 ft 439 kts 222°
2026-05-06 13:21 36.44308 -77.03532 34049 ft 438 kts 222°
2026-05-06 13:22 36.39059 -77.07381 34050 ft 438 kts 222°
2026-05-06 13:22 36.33807 -77.11226 34056 ft 438 kts 222°
2026-05-06 13:23 36.28565 -77.15058 34033 ft 438 kts 222°
2026-05-06 13:23 36.23345 -77.18868 34052 ft 439 kts 222°
2026-05-06 13:24 36.18079 -77.22705 34059 ft 440 kts 222°
2026-05-06 13:24 36.12786 -77.26556 34063 ft 441 kts 222°
2026-05-06 13:25 36.07488 -77.30405 34061 ft 442 kts 222°
2026-05-06 13:25 36.02348 -77.34485 34052 ft 433 kts 228°
2026-05-06 13:26 35.97624 -77.39100 34056 ft 433 kts 230°
2026-05-06 13:26 35.92910 -77.43771 34059 ft 435 kts 229°
2026-05-06 13:27 35.88151 -77.48419 34059 ft 437 kts 229°
2026-05-06 13:27 35.83359 -77.53052 34043 ft 439 kts 228°
2026-05-06 13:28 35.78544 -77.57689 34060 ft 440 kts 228°
2026-05-06 13:28 35.73719 -77.62328 34067 ft 440 kts 228°
2026-05-06 13:29 35.68920 -77.66934 34067 ft 440 kts 228°
2026-05-06 13:29 35.64085 -77.71570 34062 ft 440 kts 228°
2026-05-06 13:30 35.59258 -77.76191 34076 ft 439 kts 227°
2026-05-06 13:30 35.54434 -77.80802 34069 ft 440 kts 227°
2026-05-06 13:31 35.49596 -77.85420 34064 ft 440 kts 227°
2026-05-06 13:31 35.44750 -77.90039 34067 ft 441 kts 227°
2026-05-06 13:32 35.39893 -77.94660 34065 ft 442 kts 227°
2026-05-06 13:32 35.35039 -77.99271 34070 ft 442 kts 226°
2026-05-06 13:33 35.30176 -78.03882 34061 ft 442 kts 226°
2026-05-06 13:33 35.25309 -78.08491 34060 ft 442 kts 226°
2026-05-06 13:34 35.20475 -78.13062 34063 ft 442 kts 226°
2026-05-06 13:34 35.15605 -78.17660 34039 ft 442 kts 226°
2026-05-06 13:35 35.10735 -78.22251 34075 ft 443 kts 226°
2026-05-06 13:35 35.05850 -78.26851 34084 ft 444 kts 226°
2026-05-06 13:36 35.00949 -78.31458 34080 ft 445 kts 226°
2026-05-06 13:36 34.96032 -78.36067 34085 ft 447 kts 226°
2026-05-06 13:37 34.91088 -78.40687 34068 ft 448 kts 225°
2026-05-06 13:37 34.86118 -78.45327 34083 ft 451 kts 225°
2026-05-06 13:38 34.81123 -78.49985 34077 ft 454 kts 225°
2026-05-06 13:38 34.76124 -78.54637 34079 ft 456 kts 225°
2026-05-06 13:39 34.71072 -78.59332 34067 ft 457 kts 225°
2026-05-06 13:39 34.66012 -78.64025 34077 ft 458 kts 226°
2026-05-06 13:40 34.60951 -78.68714 34088 ft 457 kts 225°
2026-05-06 13:40 34.55894 -78.73392 34077 ft 456 kts 225°
2026-05-06 13:41 34.50854 -78.78048 34066 ft 454 kts 225°
2026-05-06 13:41 34.46654 -78.81883 34042 ft 454 kts 225°
2026-05-06 13:42 34.40730 -78.87140 34063 ft 455 kts 223°
2026-05-06 13:42 34.36365 -78.90784 34073 ft 455 kts 223°
2026-05-06 13:43 34.31160 -78.95141 34076 ft 455 kts 223°
2026-05-06 13:43 34.25971 -78.99521 34079 ft 455 kts 223°
2026-05-06 13:44 34.20772 -79.03889 34077 ft 455 kts 223°
2026-05-06 13:44 34.15563 -79.08249 34086 ft 456 kts 223°
2026-05-06 13:45 34.10369 -79.12594 34095 ft 458 kts 223°
2026-05-06 13:45 34.02497 -79.19170 34094 ft 460 kts 223°
2026-05-06 13:46 33.97236 -79.23562 34084 ft 460 kts 223°
2026-05-06 13:46 33.91970 -79.27956 34101 ft 461 kts 223°
2026-05-06 13:47 33.86692 -79.32354 34103 ft 462 kts 223°
2026-05-06 13:47 33.81407 -79.36750 34094 ft 462 kts 223°
2026-05-06 13:48 33.76119 -79.41142 34085 ft 462 kts 223°
2026-05-06 13:48 33.70837 -79.45521 34089 ft 460 kts 223°
2026-05-06 13:49 33.65585 -79.49869 34090 ft 458 kts 223°
2026-05-06 13:49 33.60353 -79.54195 34091 ft 456 kts 223°
2026-05-06 13:50 33.55142 -79.58498 34093 ft 454 kts 223°
2026-05-06 13:50 33.49942 -79.62786 34061 ft 453 kts 223°
2026-05-06 13:51 33.44749 -79.67062 34088 ft 453 kts 223°
2026-05-06 13:51 33.39578 -79.71315 34098 ft 454 kts 223°
2026-05-06 13:52 33.34363 -79.75596 34095 ft 455 kts 223°
2026-05-06 13:52 33.29123 -79.79886 34110 ft 457 kts 222°
2026-05-06 13:53 33.23867 -79.84184 34085 ft 458 kts 222°
2026-05-06 13:53 33.18610 -79.88477 34099 ft 458 kts 222°
2026-05-06 13:54 33.13349 -79.92768 34098 ft 458 kts 222°
2026-05-06 13:54 33.08082 -79.97058 34102 ft 458 kts 222°
2026-05-06 13:55 33.02853 -80.01309 34092 ft 458 kts 222°
2026-05-06 13:55 32.97598 -80.05577 34095 ft 457 kts 222°
2026-05-06 13:56 32.92342 -80.09839 34097 ft 457 kts 222°
2026-05-06 13:56 32.87090 -80.14092 34096 ft 456 kts 222°
2026-05-06 13:57 32.81830 -80.18344 34107 ft 456 kts 221°
2026-05-06 13:57 32.76592 -80.22573 34063 ft 454 kts 222°
2026-05-06 13:58 32.71411 -80.26750 34091 ft 453 kts 222°
2026-05-06 13:58 32.66195 -80.30950 34106 ft 452 kts 222°
2026-05-06 13:59 32.60985 -80.35141 34088 ft 452 kts 222°
2026-05-06 13:59 32.55706 -80.39223 34093 ft 456 kts 218°
2026-05-06 14:00 32.50190 -80.42954 34086 ft 457 kts 217°
2026-05-06 14:00 32.44629 -80.46632 34099 ft 458 kts 217°
2026-05-06 14:01 32.39076 -80.50339 34098 ft 459 kts 218°
2026-05-06 14:01 32.33519 -80.54074 34118 ft 460 kts 218°
2026-05-06 14:02 32.27998 -80.57786 34102 ft 459 kts 218°
2026-05-06 14:02 32.22452 -80.61509 34085 ft 458 kts 218°
2026-05-06 14:03 32.16911 -80.65223 34119 ft 457 kts 218°
2026-05-06 14:03 32.11372 -80.68931 34117 ft 457 kts 218°
2026-05-06 14:04 32.05837 -80.72631 34111 ft 457 kts 218°
2026-05-06 14:04 32.00304 -80.76324 34074 ft 457 kts 219°
2026-05-06 14:05 31.94772 -80.80011 34091 ft 457 kts 219°
2026-05-06 14:05 31.89263 -80.83679 34085 ft 457 kts 219°
2026-05-06 14:06 31.83714 -80.87368 34082 ft 458 kts 219°
2026-05-06 14:06 31.78156 -80.91058 34082 ft 459 kts 219°
2026-05-06 14:07 31.72593 -80.94744 34069 ft 459 kts 220°
2026-05-06 14:07 31.67030 -80.98427 34085 ft 459 kts 220°
2026-05-06 14:08 31.61451 -81.02116 34094 ft 460 kts 220°
2026-05-06 14:08 31.55839 -81.05762 34092 ft 463 kts 218°
2026-05-06 14:09 31.50146 -81.09221 34099 ft 464 kts 218°
2026-05-06 14:09 31.44407 -81.12700 34094 ft 464 kts 218°
2026-05-06 14:10 31.38677 -81.16206 34108 ft 465 kts 218°
2026-05-06 14:10 31.32906 -81.19665 34109 ft 467 kts 217°
2026-05-06 14:11 31.27098 -81.23089 34099 ft 468 kts 217°
2026-05-06 14:11 31.21255 -81.26492 34057 ft 474 kts 213°
2026-05-06 14:12 31.18083 -81.27725 34096 ft 487 kts 204°
2026-05-06 14:12 31.14701 -81.28398 34078 ft 501 kts 194°
2026-05-06 14:12 31.07634 -81.28442 34091 ft 510 kts 188°
2026-05-06 14:13 31.00532 -81.28282 34095 ft 510 kts 188°
2026-05-06 14:13 30.93445 -81.28203 34074 ft 509 kts 188°
2026-05-06 14:14 30.86366 -81.28179 34104 ft 508 kts 189°
2026-05-06 14:14 30.79300 -81.28163 34108 ft 508 kts 189°
2026-05-06 14:15 30.72223 -81.28141 34120 ft 508 kts 189°
2026-05-06 14:15 30.65163 -81.28117 34076 ft 508 kts 188°
2026-05-06 14:16 30.58134 -81.28040 34109 ft 510 kts 186°
2026-05-06 14:16 30.51025 -81.27540 34117 ft 513 kts 184°
2026-05-06 14:17 30.43905 -81.26916 34118 ft 513 kts 184°
2026-05-06 14:17 30.36786 -81.26373 34119 ft 513 kts 185°
2026-05-06 14:18 30.29666 -81.25853 34116 ft 513 kts 184°
2026-05-06 14:18 30.22538 -81.25322 34116 ft 513 kts 184°
2026-05-06 14:19 30.15373 -81.24785 33313 ft 524 kts 184°
2026-05-06 14:19 30.11741 -81.24513 32647 ft 521 kts 184°
2026-05-06 14:19 30.08123 -81.24237 31681 ft 523 kts 183°
2026-05-06 14:20 30.04489 -81.23961 30834 ft 523 kts 183°
2026-05-06 14:20 30.00857 -81.23686 29846 ft 525 kts 183°
2026-05-06 14:20 29.97211 -81.23411 28802 ft 525 kts 182°
2026-05-06 14:20 29.93558 -81.23136 27757 ft 524 kts 182°
2026-05-06 14:21 29.89923 -81.22862 26722 ft 524 kts 181°
2026-05-06 14:21 29.86288 -81.22588 25662 ft 523 kts 181°
2026-05-06 14:21 29.82718 -81.22319 25049 ft 514 kts 181°
2026-05-06 14:21 29.79128 -81.22047 24116 ft 512 kts 180°
2026-05-06 14:22 29.75609 -81.21784 23605 ft 500 kts 180°
2026-05-06 14:22 29.72147 -81.21524 22385 ft 496 kts 180°
2026-05-06 14:22 29.68772 -81.21266 21698 ft 489 kts 180°
2026-05-06 14:22 29.65400 -81.20983 20943 ft 483 kts 180°
2026-05-06 14:23 29.62067 -81.20691 20202 ft 479 kts 179°
2026-05-06 14:23 29.58758 -81.20400 19444 ft 475 kts 179°
2026-05-06 14:23 29.55474 -81.20113 18706 ft 471 kts 179°
2026-05-06 14:23 29.52210 -81.19831 17886 ft 468 kts 179°
2026-05-06 14:24 29.48970 -81.19553 17120 ft 464 kts 179°
2026-05-06 14:24 29.45775 -81.19280 16421 ft 458 kts 178°
2026-05-06 14:24 29.42602 -81.19009 15739 ft 453 kts 178°
2026-05-06 14:24 29.39480 -81.18743 15294 ft 443 kts 178°
2026-05-06 14:25 29.36457 -81.18484 15014 ft 429 kts 178°
2026-05-06 14:25 29.33526 -81.18233 14824 ft 415 kts 178°
2026-05-06 14:25 29.31913 -81.18095 14716 ft 407 kts 178°
2026-05-06 14:25 29.29094 -81.17855 14502 ft 396 kts 178°
2026-05-06 14:26 29.26435 -81.17624 14285 ft 385 kts 176°
2026-05-06 14:26 29.23790 -81.17390 14019 ft 379 kts 177°
2026-05-06 14:26 29.21171 -81.17158 13776 ft 375 kts 177°
2026-05-06 14:26 29.18581 -81.16869 13518 ft 374 kts 170°
2026-05-06 14:27 29.16143 -81.16002 13225 ft 370 kts 159°
2026-05-06 14:27 29.13758 -81.14915 12828 ft 368 kts 158°
2026-05-06 14:27 29.11397 -81.13833 12359 ft 361 kts 159°
2026-05-06 14:27 29.09082 -81.12809 11840 ft 355 kts 159°
2026-05-06 14:28 29.06819 -81.11836 11606 ft 339 kts 160°
2026-05-06 14:28 29.04661 -81.10916 11377 ft 325 kts 160°
2026-05-06 14:28 29.02554 -81.10082 11013 ft 317 kts 162°
2026-05-06 14:28 29.00468 -81.09301 10611 ft 313 kts 162°
2026-05-06 14:29 28.98412 -81.08534 10168 ft 310 kts 162°
2026-05-06 14:29 28.96343 -81.07921 9877 ft 299 kts 173°
2026-05-06 14:29 28.94274 -81.07683 9228 ft 303 kts 175°
2026-05-06 14:29 28.92177 -81.07486 8818 ft 305 kts 175°
2026-05-06 14:30 28.90064 -81.07268 8477 ft 304 kts 175°
2026-05-06 14:30 28.87968 -81.07495 8095 ft 303 kts 201°
2026-05-06 14:30 28.86709 -81.08169 7901 ft 301 kts 212°
2026-05-06 14:30 28.84973 -81.09485 7591 ft 298 kts 217°
2026-05-06 14:31 28.83323 -81.10856 7458 ft 290 kts 217°
2026-05-06 14:31 28.81706 -81.12187 7314 ft 282 kts 217°
2026-05-06 14:31 28.80123 -81.13464 7202 ft 275 kts 216°
2026-05-06 14:31 28.78887 -81.14452 7112 ft 269 kts 216°
2026-05-06 14:32 28.77373 -81.15652 6963 ft 262 kts 217°
2026-05-06 14:32 28.76123 -81.17117 6680 ft 257 kts 245°
2026-05-06 14:32 28.75250 -81.18850 6397 ft 251 kts 232°
2026-05-06 14:32 28.74123 -81.20348 6108 ft 245 kts 231°
2026-05-06 14:33 28.73050 -81.21792 5844 ft 239 kts 231°
2026-05-06 14:33 28.71984 -81.23252 5581 ft 235 kts 232°
2026-05-06 14:33 28.70947 -81.24689 5336 ft 235 kts 232°
2026-05-06 14:33 28.69932 -81.26108 5092 ft 234 kts 232°
2026-05-06 14:34 28.68891 -81.27567 4824 ft 234 kts 231°
2026-05-06 14:34 28.67879 -81.28989 4552 ft 233 kts 231°
2026-05-06 14:34 28.66858 -81.30425 4292 ft 235 kts 231°
2026-05-06 14:34 28.65824 -81.31864 4022 ft 234 kts 227°
2026-05-06 14:35 28.64482 -81.32845 3730 ft 232 kts 190°
2026-05-06 14:35 28.62893 -81.32930 3524 ft 228 kts 178°
2026-05-06 14:35 28.61306 -81.32900 3283 ft 228 kts 178°
2026-05-06 14:35 28.59725 -81.32867 3014 ft 227 kts 179°
2026-05-06 14:36 28.58180 -81.32844 2739 ft 217 kts 179°
2026-05-06 14:36 28.56699 -81.32826 2439 ft 209 kts 179°
2026-05-06 14:36 28.55273 -81.32811 2157 ft 200 kts 178°
2026-05-06 14:36 28.53909 -81.32796 1901 ft 192 kts 179°
2026-05-06 14:37 28.52604 -81.32781 1651 ft 182 kts 178°
2026-05-06 14:37 28.51373 -81.32767 1428 ft 172 kts 179°
2026-05-06 14:37 28.50217 -81.32754 1217 ft 161 kts 178°
2026-05-06 14:37 28.49106 -81.32741 1074 ft 167 kts 178°
2026-05-06 14:38 28.47938 -81.32727 776 ft 161 kts 178°
2026-05-06 14:38 28.46873 -81.32714 545 ft 149 kts 181°
2026-05-06 14:38 28.45870 -81.32705 359 ft 142 kts 179°
2026-05-06 14:38 28.44899 -81.32697 165 ft 139 kts 179°
2026-05-06 14:39 28.43976 -81.32688 101 ft 117 kts 179°
2026-05-06 14:39 28.43305 -81.32679 109 ft 75 kts 179°
2026-05-06 14:39 28.42934 -81.32678 107 ft 36 kts 179°
2026-05-06 14:39 28.42690 -81.32659 102 ft 34 kts 157°
2026-05-06 14:40 28.42546 -81.32466 104 ft 31 kts 119°
2026-05-06 14:40 28.42443 -81.32261 108 ft 29 kts 120°
2026-05-06 14:40 28.42351 -81.32067 108 ft 27 kts 104°
2026-05-06 14:40 28.42346 -81.31860 107 ft 25 kts 89°
2026-05-06 14:41 28.42382 -81.31681 103 ft 23 kts 36°
2026-05-06 14:41 28.42497 -81.31563 101 ft 22 kts 71°
2026-05-06 14:41 28.42524 -81.31452 101 ft 10 kts 59°
2026-05-06 14:41 28.42567 -81.31444 101 ft 5 kts 326°
2026-05-06 14:42 28.42586 -81.31460 101 ft 0 kts 324°